This is the latest recevied weather packets stored in our database for station/object N2PPN. If no packets are shown the sender has not sent any weather packets the latest 10 day(s).
| Time | Temp. | Humidity | Pressure | Rain* | Wind** | Luminosity | Snow |
|---|---|---|---|---|---|---|---|
| 1778028502 | 16.67° C | 76% | 1013.9 hPa | 0 mm | - | 0 W/m² | - |
| 1778028200 | 16.67° C | 76% | 1013.9 hPa | 0 mm | - | 0 W/m² | - |
| 1778027896 | 16.67° C | 77% | 1013.9 hPa | 0 mm | - | 0 W/m² | - |
| 1778027592 | 16.67° C | 77% | 1013.6 hPa | 0 mm | - | 0 W/m² | - |
| 1778027289 | 16.67° C | 76% | 1013.9 hPa | 0 mm | - | 0 W/m² | - |
| 1778026985 | 16.67° C | 76% | 1013.5 hPa | 0 mm | - | 0 W/m² | - |
| 1778026681 | 17.22° C | 75% | 1013.6 hPa | 0 mm | - | 0 W/m² | - |
| 1778026379 | 17.22° C | 75% | 1013.4 hPa | 0 mm | - | 0 W/m² | - |
| 1778026075 | 17.22° C | 74% | 1013.3 hPa | 0 mm | - | 0 W/m² | - |
| 1778025773 | 17.22° C | 74% | 1013.3 hPa | 0 mm | - | 1 W/m² | - |
| 1778025470 | 17.22° C | 75% | 1013.2 hPa | 0 mm | - | 2 W/m² | - |
| 1778025167 | 17.22° C | 75% | 1013.3 hPa | 0 mm | - | 3 W/m² | - |
| 1778024864 | 17.22° C | 75% | 1013.1 hPa | 0 mm | - | 5 W/m² | - |
| 1778024562 | 17.22° C | 74% | 1013.1 hPa | 0 mm | - | 7 W/m² | - |
| 1778024258 | 16.67° C | 75% | 1013 hPa | 0 mm | - | 10 W/m² | - |
| 1778023956 | 16.67° C | 75% | 1012.7 hPa | 0 mm | - | 15 W/m² | - |
| 1778023653 | 17.22° C | 74% | 1012.7 hPa | 0 mm | - | 18 W/m² | - |
| 1778023351 | 17.22° C | 74% | 1012.5 hPa | 0 mm | - | 20 W/m² | - |
| 1778023047 | 16.67° C | 74% | 1012.5 hPa | 0 mm | - | 22 W/m² | - |
| 1778022746 | 16.67° C | 75% | 1012.7 hPa | 0 mm | - | 25 W/m² | - |
| 1778022444 | 17.22° C | 75% | 1012.5 hPa | 0 mm | - | 28 W/m² | - |
| 1778022140 | 17.22° C | 74% | 1012.3 hPa | 0 mm | - | 34 W/m² | - |
| 1778021837 | 16.67° C | 75% | 1012.4 hPa | 0 mm | - | 41 W/m² | - |
| 1778021534 | 16.67° C | 75% | 1012.1 hPa | 0 mm | - | 44 W/m² | - |
| 1778021229 | 17.22° C | 74% | 1012.3 hPa | 0 mm | - | 69 W/m² | - |
* Rain latest hour (hover to see other rain measurements)
** Current wind speed in m/s (hover to see current wind gust speed)